{"data":{"norad_id":59910,"intl_designator":"2024-102B","name":"TIANQI-26","alt_names":[],"object_type":"PAYLOAD","status":"ACTIVE","operator":null,"country":"PRC","launch_date":"2024-05-29","launch_site_code":"YSLA","launch_vehicle":null,"mission":null,"orbit_class":"UNKNOWN","rcs_meters":null,"size_class":null,"mass_kg":null,"dimensions":null,"purposes":[],"wikipedia_slug":null,"has_3d_model":false,"image_url":null,"decayed_at":null,"tle_current":{"epoch":"2026-09-22T21:38:35.088000Z","epoch_age_seconds":67979,"freshness":"FRESH","line1":"1 59910U 24102B   26265.90179500  .00000022  00000+0  10294-3 0  9997","line2":"2 59910  44.9728 186.6936 0011324 343.8979  16.1492 13.99178894118599","mean_motion":13.99178894,"eccentricity":0.0011324,"inclination_deg":44.9728,"raan_deg":186.6936,"arg_perigee_deg":343.8979,"mean_anomaly_deg":16.1492,"bstar":0.00010294,"rev_number":11859,"period_min":102.91750441456,"perigee_km":888.4019200141,"apogee_km":904.87783468592,"semimajor_km":7274.77687735,"source":"CELESTRAK","updated_at":"2026-09-23T09:00:19.771708Z"}}}